Cincinnati, OH

3:56 AM EDT on September 30, 2016 (GMT -0400)
Cincinnati Municipal-Lunken

Weather History for KLUK - December, 2012

Change the Weather History Date:

Saturday, December 29, 2012

  Actual Average Record
Temperature  
Mean Temperature 30 °F -  
Max Temperature 33 °F 39 °F 68 °F (1984)
Min Temperature 26 °F 24 °F 3 °F (1961)
Degree Days  
Heating Degree Days 36    
Moisture  
Dew Point 29 °F    
Average Humidity 91    
Maximum Humidity 100    
Minimum Humidity 72    
Precipitation  
Precipitation 0.01 in - - ()
Sea Level Pressure  
Sea Level Pressure 29.89 in    
Wind  
Wind Speed 5 mph (NW)    
Max Wind Speed 17 mph    
Max Gust Speed 28 mph    
Visibility 4 miles    
Events Snow    
Averages and records for this station are not official NWS values.
T = Trace of Precipitation, MM = Missing Value Source: NWS Daily Summary

Daily Weather History Graph

Daily Weather History Graph

Search for Another Location

Airport or City:

Trip Planner

Search our weather history database for the weather conditions in past years. The results will help you decide how hot, cold, wet, or windy it might be!

Date:

Astronomy

Dec. 29, 2012 Rise Set
Actual Time 7:56 AM EST 5:23 PM EST
Civil Twilight 7:26 AM EST 5:53 PM EST
Nautical Twilight 6:52 AM EST 6:27 PM EST
Astronomical Twilight 6:20 AM EST 6:59 PM EST
Moon 6:55 PM EST (12/29) 8:30 AM EST (12/29)
Length of Visible Light 10h 27m
Length of Day
9h 27m
Full, 98% of the Moon is Illuminated
Dec 29
Full
Jan 4
Last Quarter
Jan 11
New
Jan 18
First Quarter
Jan 26
Full

Hourly Weather History & Observations

Time (EST) Temp. Windchill Dew Point Humidity Pressure Visibility Wind Dir Wind Speed Gust Speed Precip Events Conditions
12:22 AM 32.0 °F - 32.0 °F 100% 29.83 in 1.2 mi Calm Calm - 0.00 in Snow Light Snow
12:32 AM 32.0 °F 28.7 °F 32.0 °F 100% 29.82 in 1.5 mi NNE 3.5 mph - 0.00 in Snow Light Snow
12:53 AM 32.0 °F 28.7 °F 32.0 °F 100% 29.81 in 1.8 mi NE 3.5 mph - 0.00 in Snow Light Snow
1:07 AM 32.0 °F 27.5 °F 32.0 °F 100% 29.78 in 2.0 mi NE 4.6 mph - 0.00 in Snow Light Snow
1:53 AM 32.0 °F - 32.0 °F 100% 29.79 in 1.5 mi Calm Calm - 0.00 in Snow Light Snow
2:06 AM 32.0 °F 28.7 °F 32.0 °F 100% 29.77 in 1.2 mi NE 3.5 mph - 0.00 in Snow Light Snow
2:53 AM 32.0 °F 28.7 °F 32.0 °F 100% 29.78 in 1.0 mi North 3.5 mph - 0.00 in Snow Light Snow
3:11 AM 32.0 °F 28.7 °F 32.0 °F 100% 29.77 in 1.2 mi North 3.5 mph - 0.00 in Snow Light Snow
3:26 AM 32.0 °F 28.7 °F 32.0 °F 100% 29.76 in 1.5 mi North 3.5 mph - 0.00 in Snow Light Snow
3:53 AM 32.0 °F - 32.0 °F 100% 29.77 in 0.8 mi Calm Calm - 0.00 in Snow Light Snow
4:19 AM 32.0 °F 28.7 °F 32.0 °F 100% 29.74 in 1.0 mi North 3.5 mph - 0.00 in Snow Light Snow
4:53 AM 32.0 °F - 32.0 °F 100% 29.76 in 1.0 mi Calm Calm - 0.00 in Snow Light Snow
5:09 AM 32.0 °F - 32.0 °F 100% 29.75 in 1.0 mi Calm Calm - 0.00 in Snow Light Snow
5:20 AM 32.0 °F 27.5 °F 30.2 °F 93% 29.74 in 0.8 mi North 4.6 mph - 0.00 in Snow Light Snow
5:28 AM 32.0 °F 27.5 °F 30.2 °F 93% 29.75 in 0.8 mi North 4.6 mph - 0.00 in Snow Light Snow
5:35 AM 32.0 °F 25.6 °F 30.2 °F 93% 29.75 in 1.0 mi North 6.9 mph - 0.00 in Snow Light Snow
5:53 AM 32.0 °F 26.4 °F 30.9 °F 96% 29.77 in 0.8 mi NNW 5.8 mph - 0.01 in Snow Light Snow
6:07 AM 30.2 °F 22.6 °F 30.2 °F 100% 29.76 in 1.2 mi NNW 8.1 mph - 0.00 in Snow Light Snow
6:25 AM 30.2 °F 24.3 °F 30.2 °F 100% 29.76 in 1.8 mi NNW 5.8 mph - 0.00 in Snow Light Snow
6:38 AM 30.2 °F 26.7 °F 30.2 °F 100% 29.77 in 2.5 mi NNW 3.5 mph - 0.00 in Snow Light Snow
6:48 AM 30.2 °F 23.4 °F 30.2 °F 100% 29.77 in 3.0 mi NNW 6.9 mph - 0.00 in Snow Light Snow
6:53 AM 30.9 °F 26.2 °F 30.0 °F 96% 29.78 in 2.5 mi NNW 4.6 mph - 0.00 in Snow Light Snow
7:15 AM 30.2 °F 25.4 °F 30.2 °F 100% 29.78 in 3.0 mi WNW 4.6 mph - 0.00 in Snow Light Snow
7:30 AM 30.2 °F 24.3 °F 30.2 °F 100% 29.79 in 2.0 mi NW 5.8 mph - 0.00 in Snow Light Snow
7:38 AM 30.2 °F 25.4 °F 30.2 °F 100% 29.79 in 2.0 mi NW 4.6 mph - 0.00 in Snow Light Snow
7:46 AM 30.2 °F 26.7 °F 30.2 °F 100% 29.79 in 1.8 mi WNW 3.5 mph - 0.00 in Snow Light Snow
7:53 AM 30.9 °F - 30.0 °F 96% 29.81 in 2.0 mi Calm Calm - 0.00 in Snow Light Snow
8:50 AM 30.2 °F 22.6 °F 28.4 °F 93% 29.82 in 5.0 mi West 8.1 mph - 0.00 in   Overcast
8:53 AM 30.0 °F 23.2 °F 28.0 °F 92% 29.83 in 5.0 mi WNW 6.9 mph - 0.00 in   Mostly Cloudy
9:53 AM 30.9 °F 23.5 °F 28.0 °F 89% 29.88 in 7.0 mi West 8.1 mph - N/A   Overcast
10:53 AM 30.9 °F 24.3 °F 28.0 °F 89% 29.92 in 5.0 mi WNW 6.9 mph - N/A   Overcast
11:53 AM 30.9 °F 26.2 °F 27.0 °F 85% 29.94 in 6.0 mi WNW 4.6 mph - N/A   Overcast
12:53 PM 30.9 °F 23.5 °F 26.1 °F 82% 29.93 in 7.0 mi West 8.1 mph 18.4 mph N/A   Overcast
1:53 PM 32.0 °F 22.5 °F 27.0 °F 82% 29.94 in 7.0 mi West 12.7 mph - N/A   Overcast
2:53 PM 32.0 °F 24.2 °F 27.0 °F 82% 29.96 in 5.0 mi West 9.2 mph - N/A   Haze
3:45 PM 32.0 °F 24.2 °F 28.4 °F 87% 29.97 in 2.5 mi West 9.2 mph - 0.00 in Snow Light Snow
3:53 PM 32.0 °F 24.2 °F 28.0 °F 85% 29.99 in 2.5 mi West 9.2 mph - 0.00 in Snow Light Snow
3:58 PM 32.0 °F 24.2 °F 28.4 °F 87% 29.98 in 3.0 mi West 9.2 mph - 0.00 in Snow Light Snow
4:49 PM 33.8 °F 23.9 °F 28.4 °F 81% 29.99 in 6.0 mi West 15.0 mph 21.9 mph 0.00 in Snow Light Snow
4:53 PM 33.1 °F 22.6 °F 28.0 °F 82% 30.01 in 5.0 mi West 16.1 mph 21.9 mph 0.00 in Snow Light Snow
5:11 PM 33.8 °F 23.5 °F 26.6 °F 75% 30.01 in 5.0 mi WNW 16.1 mph 21.9 mph 0.00 in Snow Light Snow
5:34 PM 32.0 °F 24.2 °F 28.4 °F 87% 30.03 in 3.0 mi WNW 9.2 mph - 0.00 in Snow Light Snow
5:53 PM 30.2 °F 18.5 °F 26.6 °F 86% 30.04 in 3.0 mi West 17.3 mph 20.7 mph N/A Snow Light Snow
6:53 PM 30.0 °F 22.4 °F 25.0 °F 82% 30.09 in 5.0 mi West 8.1 mph - 0.00 in Snow Light Snow
7:53 PM 30.0 °F 18.3 °F 24.1 °F 79% 30.13 in 5.0 mi West 17.3 mph 27.6 mph 0.00 in Snow Light Snow
8:53 PM 28.9 °F 18.6 °F 23.0 °F 78% 30.16 in 10.0 mi West 12.7 mph 21.9 mph 0.00 in   Overcast
9:53 PM 28.0 °F 15.7 °F 19.9 °F 72% 30.20 in 10.0 mi WNW 17.3 mph 24.2 mph N/A   Overcast
10:53 PM 27.0 °F 17.3 °F 19.9 °F 75% 30.22 in 10.0 mi West 10.4 mph - N/A   Overcast
11:07 PM 26.6 °F 15.2 °F 19.4 °F 74% 30.22 in 10.0 mi West 13.8 mph 18.4 mph N/A   Overcast
11:53 PM 27.0 °F 16.7 °F 19.9 °F 75% 30.26 in 10.0 mi West 11.5 mph - N/A   Overcast